Time,TemperatureF,DewpointF,PressureIn,WindDirection,WindDirectionDegrees,WindSpeedMPH,WindSpeedGustMPH,Humidity,HourlyPrecipIn,Conditions,Clouds,dailyrainin,SoftwareType,DateUTC
2013-03-08 00:04:00,52.9,33.7,29.80,ENE,74,3.6,6.3,48,0.00,,OVC075,0.00,VWS V14.01,2013-03-08 08:04:00,
2013-03-08 00:10:00,52.7,33.6,29.80,East,80,2.7,4.9,48,0.00,,OVC075,0.00,VWS V14.01,2013-03-08 08:10:00,
2013-03-08 00:15:00,52.7,33.6,29.80,East,80,0.0,3.6,48,0.00,,OVC075,0.00,VWS V14.01,2013-03-08 08:15:00,
2013-03-08 00:21:00,52.9,33.7,29.80,SE,129,2.2,3.6,48,0.00,,OVC075,0.00,VWS V14.01,2013-03-08 08:21:00,
2013-03-08 00:27:00,52.9,35.2,29.80,SE,128,0.0,3.6,51,0.00,,OVC075,0.00,VWS V14.01,2013-03-08 08:27:00,
2013-03-08 00:32:00,52.5,35.9,29.80,East,84,0.0,4.0,53,0.00,,OVC075,0.00,VWS V14.01,2013-03-08 08:32:00,
2013-03-08 00:38:00,52.3,36.7,29.80,ENE,62,0.0,3.6,55,0.00,,-RA,0.00,VWS V14.01,2013-03-08 08:38:00,
2013-03-08 00:43:00,52.1,37.4,29.80,East,95,3.6,3.6,57,0.00,,-RA,0.00,VWS V14.01,2013-03-08 08:43:00,
2013-03-08 00:49:00,52.0,39.0,29.80,ESE,102,3.1,4.0,61,0.00,,-RA,0.00,VWS V14.01,2013-03-08 08:49:00,
2013-03-08 00:54:00,51.8,39.2,29.80,ESE,114,3.1,3.6,62,0.00,,-RA,0.00,VWS V14.01,2013-03-08 08:54:00,
2013-03-08 01:00:00,51.6,39.8,29.80,East,86,2.7,3.6,64,0.00,,-RA,0.00,VWS V14.01,2013-03-08 09:00:00,
2013-03-08 01:06:00,51.4,40.5,29.80,ESE,116,0.0,3.1,66,0.00,,-RA,0.00,VWS V14.01,2013-03-08 09:06:00,
2013-03-08 01:11:00,51.1,40.1,29.80,SE,135,2.7,5.8,66,0.04,,-RA,0.04,VWS V14.01,2013-03-08 09:11:00,
2013-03-08 01:16:00,50.9,40.3,29.80,SE,130,2.7,3.6,67,0.04,,-RA,0.04,VWS V14.01,2013-03-08 09:16:00,
2013-03-08 01:21:00,50.9,40.3,29.77,ESE,109,3.6,5.8,67,0.04,,-RA,0.04,VWS V14.01,2013-03-08 09:21:00,
2013-03-08 01:27:00,50.7,40.5,29.77,ESE,106,3.1,3.1,68,0.04,,-RA,0.04,VWS V14.01,2013-03-08 09:27:00,
2013-03-08 01:32:00,50.7,40.9,29.77,East,99,0.0,3.1,69,0.04,,-RA,0.04,VWS V14.01,2013-03-08 09:32:00,
2013-03-08 01:37:00,50.7,40.9,29.77,East,99,2.7,3.1,69,0.04,,RA,0.04,VWS V14.01,2013-03-08 09:37:00,
2013-03-08 01:43:00,50.5,40.7,29.77,ENE,71,0.0,2.2,69,0.04,,RA,0.04,VWS V14.01,2013-03-08 09:43:00,
2013-03-08 01:49:00,50.5,41.1,29.77,ENE,71,0.0,2.2,70,0.04,,RA,0.04,VWS V14.01,2013-03-08 09:49:00,
2013-03-08 01:54:00,50.3,40.9,29.77,ESE,114,0.0,5.4,70,0.04,,RA,0.04,VWS V14.01,2013-03-08 09:54:00,
2013-03-08 01:59:00,50.2,40.8,29.77,SSE,149,3.1,8.3,70,0.04,,RA,0.04,VWS V14.01,2013-03-08 09:59:00,
2013-03-08 02:05:00,50.2,41.5,29.77,East,98,0.0,3.1,72,0.12,,RA,0.12,VWS V14.01,2013-03-08 10:05:00,
2013-03-08 02:10:00,50.2,41.5,29.77,West,263,5.4,6.3,72,0.08,,RA,0.12,VWS V14.01,2013-03-08 10:10:00,
2013-03-08 02:16:00,48.4,39.4,29.77,WNW,299,8.3,8.7,71,0.20,,RA,0.24,VWS V14.01,2013-03-08 10:16:00,
2013-03-08 02:21:00,47.5,38.9,29.77,WNW,303,8.3,8.3,72,0.35,,RA,0.39,VWS V14.01,2013-03-08 10:21:00,
2013-03-08 02:27:00,47.1,39.2,29.77,WNW,294,5.4,8.1,74,0.47,,RA,0.51,VWS V14.01,2013-03-08 10:27:00,
2013-03-08 02:32:00,47.1,39.9,29.77,West,274,7.6,8.1,76,0.51,,RA,0.55,VWS V14.01,2013-03-08 10:32:00,
2013-03-08 02:38:00,47.1,40.6,29.77,WNW,301,4.0,7.6,78,0.51,, +RA,0.55,VWS V14.01,2013-03-08 10:38:00,
2013-03-08 02:44:00,47.1,40.9,29.77,NW,320,3.1,7.6,79,0.55,, +RA,0.59,VWS V14.01,2013-03-08 10:44:00,
2013-03-08 02:49:00,47.1,41.3,29.77,WNW,291,5.8,5.8,80,0.55,, +RA,0.59,VWS V14.01,2013-03-08 10:49:00,
2013-03-08 02:55:00,47.1,41.6,29.77,NW,322,5.8,8.1,81,0.55,,RA,0.59,VWS V14.01,2013-03-08 10:55:00,
2013-03-08 03:01:00,46.9,41.4,29.77,WNW,282,5.8,6.7,81,0.55,,RA,0.59,VWS V14.01,2013-03-08 11:01:00,
2013-03-08 03:06:00,47.1,41.9,29.77,West,274,5.4,5.8,82,0.47,,RA,0.59,VWS V14.01,2013-03-08 11:06:00,
2013-03-08 03:12:00,47.5,42.6,29.77,WSW,241,5.4,6.3,83,0.43,,RA,0.59,VWS V14.01,2013-03-08 11:12:00,
2013-03-08 03:17:00,47.3,42.4,29.77,WSW,252,10.5,10.5,83,0.35,,RA,0.59,VWS V14.01,2013-03-08 11:17:00,
2013-03-08 03:22:00,47.5,42.9,29.77,West,280,5.4,5.4,84,0.20,,RA,0.59,VWS V14.01,2013-03-08 11:22:00,
2013-03-08 03:27:00,47.5,42.9,29.77,WNW,298,3.6,5.8,84,0.08,,RA,0.59,VWS V14.01,2013-03-08 11:27:00,
2013-03-08 03:32:00,47.3,42.7,29.77,WNW,297,4.9,7.6,84,0.08,,RA,0.63,VWS V14.01,2013-03-08 11:32:00,
2013-03-08 03:37:00,47.1,42.5,29.77,NW,315,6.7,7.6,84,0.08,,-RA,0.63,VWS V14.01,2013-03-08 11:37:00,
2013-03-08 03:43:00,46.9,42.3,29.77,North,353,4.0,6.3,84,0.08,,-RA,0.67,VWS V14.01,2013-03-08 11:43:00,
2013-03-08 03:48:00,46.7,42.2,29.77,WNW,296,3.1,4.0,84,0.08,,-RA,0.67,VWS V14.01,2013-03-08 11:48:00,
2013-03-08 03:53:00,46.7,42.2,29.77,NNW,344,4.0,6.3,84,0.08,,-RA,0.67,VWS V14.01,2013-03-08 11:53:00,
2013-03-08 03:58:00,46.7,42.2,29.77,NNW,333,5.8,6.3,84,0.08,,-RA,0.67,VWS V14.01,2013-03-08 11:58:00,
2013-03-08 04:04:00,46.7,42.2,29.77,NW,308,4.9,7.2,84,0.08,,-RA,0.67,VWS V14.01,2013-03-08 12:04:00,
2013-03-08 04:09:00,46.7,42.2,29.77,NNW,339,5.8,5.8,84,0.08,,-RA,0.67,VWS V14.01,2013-03-08 12:09:00,
2013-03-08 04:15:00,46.7,42.2,29.77,SW,218,3.6,3.6,84,0.08,,-RA,0.67,VWS V14.01,2013-03-08 12:15:00,
2013-03-08 04:20:00,46.7,42.2,29.77,NW,310,2.7,3.1,84,0.08,,-RA,0.67,VWS V14.01,2013-03-08 12:20:00,
2013-03-08 04:25:00,46.7,42.2,29.77,NNW,340,4.9,4.9,84,0.08,,-RA,0.67,VWS V14.01,2013-03-08 12:25:00,
2013-03-08 04:31:00,46.6,42.0,29.77,NNW,330,3.1,5.8,84,0.04,,-RA,0.67,VWS V14.01,2013-03-08 12:31:00,
2013-03-08 04:36:00,46.6,42.0,29.77,NNW,346,3.6,5.8,84,0.04,,-RA,0.67,VWS V14.01,2013-03-08 12:36:00,
2013-03-08 04:42:00,46.7,42.2,29.77,West,277,4.0,4.0,84,0.04,,-RA,0.67,VWS V14.01,2013-03-08 12:42:00,
2013-03-08 04:48:00,46.7,42.2,29.77,WNW,300,0.0,0.0,84,0.00,,-RA,0.67,VWS V14.01,2013-03-08 12:48:00,
2013-03-08 04:54:00,46.7,42.2,29.77,WNW,300,0.0,0.0,84,0.00,,-RA,0.67,VWS V14.01,2013-03-08 12:54:00,
2013-03-08 04:59:00,46.7,42.2,29.77,WSW,257,4.0,4.0,84,0.00,,-RA,0.67,VWS V14.01,2013-03-08 12:59:00,
2013-03-08 05:04:00,46.7,42.2,29.80,SW,235,0.0,0.0,84,0.00,,-RA,0.67,VWS V14.01,2013-03-08 13:04:00,
2013-03-08 05:09:00,46.7,42.2,29.80,SW,235,0.0,0.0,84,0.00,,-RA,0.67,VWS V14.01,2013-03-08 13:09:00,
2013-03-08 05:15:00,46.7,42.2,29.80,WNW,301,3.1,4.0,84,0.00,,-RA,0.67,VWS V14.01,2013-03-08 13:15:00,
2013-03-08 05:21:00,46.7,42.2,29.77,WSW,238,4.9,4.9,84,0.00,,-RA,0.67,VWS V14.01,2013-03-08 13:21:00,
2013-03-08 05:27:00,46.7,42.2,29.77,WSW,247,2.7,3.6,84,0.00,,-RA,0.67,VWS V14.01,2013-03-08 13:27:00,
2013-03-08 05:33:00,46.7,41.9,29.77,West,261,0.0,2.2,83,0.00,,-RA,0.67,VWS V14.01,2013-03-08 13:33:00,
2013-03-08 05:39:00,46.7,41.9,29.77,SSW,198,2.7,3.1,83,0.00,,-RA,0.67,VWS V14.01,2013-03-08 13:39:00,
2013-03-08 05:44:00,46.7,41.9,29.77,SSW,198,0.0,0.0,83,0.00,,-RA,0.67,VWS V14.01,2013-03-08 13:44:00,
2013-03-08 05:50:00,46.6,41.7,29.77,SSW,198,0.0,0.0,83,0.00,,-RA,0.67,VWS V14.01,2013-03-08 13:50:00,
2013-03-08 05:55:00,46.6,41.7,29.77,SSW,198,0.0,0.0,83,0.00,,-RA,0.67,VWS V14.01,2013-03-08 13:55:00,
2013-03-08 06:01:00,46.4,41.2,29.77,SSW,198,0.0,0.0,82,0.00,,-RA,0.67,VWS V14.01,2013-03-08 14:01:00,
2013-03-08 06:06:00,46.2,41.0,29.80,SSW,198,0.0,0.0,82,0.00,,-RA,0.67,VWS V14.01,2013-03-08 14:06:00,
2013-03-08 06:11:00,46.0,41.2,29.80,SSW,198,0.0,0.0,83,0.00,,-RA,0.67,VWS V14.01,2013-03-08 14:11:00,
2013-03-08 06:17:00,45.8,41.0,29.80,SSW,198,0.0,0.0,83,0.00,,-RA,0.67,VWS V14.01,2013-03-08 14:17:00,
2013-03-08 06:22:00,46.0,41.2,29.80,SSW,198,0.0,0.0,83,0.00,,-RA,0.67,VWS V14.01,2013-03-08 14:22:00,
2013-03-08 06:28:00,46.0,41.2,29.80,SSW,198,0.0,0.0,83,0.00,,-RA,0.67,VWS V14.01,2013-03-08 14:28:00,
2013-03-08 06:33:00,46.0,41.2,29.80,SSW,198,0.0,0.0,83,0.00,,-RA,0.67,VWS V14.01,2013-03-08 14:33:00,
2013-03-08 06:39:00,46.0,41.2,29.80,SSW,198,0.0,0.0,83,0.00,,BKN100,0.67,VWS V14.01,2013-03-08 14:39:00,
2013-03-08 06:44:00,46.6,41.7,29.80,SSW,198,0.0,0.0,83,0.00,,BKN100,0.67,VWS V14.01,2013-03-08 14:44:00,
2013-03-08 06:49:00,46.7,42.2,29.83,SSW,198,0.0,0.0,84,0.00,,BKN100,0.67,VWS V14.01,2013-03-08 14:49:00,
2013-03-08 06:54:00,46.9,42.3,29.83,SSW,198,0.0,2.2,84,0.00,,BKN100,0.67,VWS V14.01,2013-03-08 14:54:00,
2013-03-08 07:00:00,47.1,42.8,29.83,SSW,198,0.0,0.0,85,0.00,,BKN100,0.67,VWS V14.01,2013-03-08 15:00:00,
2013-03-08 07:06:00,47.1,42.8,29.83,ESE,113,2.2,2.7,85,0.00,,BKN100,0.67,VWS V14.01,2013-03-08 15:06:00,
2013-03-08 07:11:00,46.9,42.7,29.83,East,97,0.0,0.0,85,0.00,,BKN100,0.67,VWS V14.01,2013-03-08 15:11:00,
2013-03-08 07:17:00,47.3,43.0,29.83,East,81,0.0,0.0,85,0.00,,BKN100,0.67,VWS V14.01,2013-03-08 15:17:00,
2013-03-08 07:22:00,47.8,43.5,29.83,NE,50,3.6,3.6,85,0.00,,BKN100,0.67,VWS V14.01,2013-03-08 15:22:00,
2013-03-08 07:28:00,48.4,44.1,29.83,NE,51,0.0,4.9,85,0.00,,BKN100,0.67,VWS V14.01,2013-03-08 15:28:00,
2013-03-08 07:34:00,48.9,44.6,29.83,NE,54,0.0,3.6,85,0.00,,BKN100,0.67,VWS V14.01,2013-03-08 15:34:00,
2013-03-08 07:39:00,48.5,43.6,29.83,ENE,67,0.0,4.0,83,0.00,,BKN044,0.67,VWS V14.01,2013-03-08 15:39:00,
2013-03-08 07:45:00,48.9,44.0,29.83,East,91,0.0,0.0,83,0.00,,BKN044,0.67,VWS V14.01,2013-03-08 15:45:00,
2013-03-08 07:50:00,48.7,41.5,29.85,SE,128,0.0,2.7,76,0.00,,BKN044,0.67,VWS V14.01,2013-03-08 15:50:00,
2013-03-08 07:55:00,49.4,40.8,29.85,SE,136,4.0,4.0,72,0.00,,BKN044,0.67,VWS V14.01,2013-03-08 15:55:00,
2013-03-08 08:00:00,49.6,39.5,29.85,SE,124,0.0,2.7,68,0.00,,BKN044,0.67,VWS V14.01,2013-03-08 16:00:00,
2013-03-08 08:05:00,50.2,38.9,29.85,SE,125,0.0,3.6,65,0.00,,BKN044,0.67,VWS V14.01,2013-03-08 16:05:00,
2013-03-08 08:10:00,50.7,39.8,29.85,ENE,77,3.1,4.0,66,0.00,,BKN044,0.67,VWS V14.01,2013-03-08 16:10:00,
2013-03-08 08:16:00,51.1,37.7,29.85,SSE,149,3.1,4.9,60,0.00,,BKN044,0.67,VWS V14.01,2013-03-08 16:16:00,
2013-03-08 08:21:00,51.4,36.7,29.85,NE,39,3.1,3.1,57,0.00,,BKN044,0.67,VWS V14.01,2013-03-08 16:21:00,
2013-03-08 08:26:00,51.8,35.7,29.85,SSE,150,0.0,2.2,54,0.00,,BKN044,0.67,VWS V14.01,2013-03-08 16:26:00,
2013-03-08 08:32:00,52.5,35.4,29.85,NE,49,4.0,4.0,52,0.00,,BKN044,0.67,VWS V14.01,2013-03-08 16:32:00,
2013-03-08 08:38:00,52.9,34.8,29.85,SE,144,0.0,0.0,50,0.00,,CLR,0.67,VWS V14.01,2013-03-08 16:38:00,
2013-03-08 08:43:00,53.0,33.9,29.85,SSW,199,0.0,2.7,48,0.00,,CLR,0.67,VWS V14.01,2013-03-08 16:43:00,
2013-03-08 08:49:00,53.0,32.8,29.83,SE,127,4.0,4.0,46,0.00,,CLR,0.67,VWS V14.01,2013-03-08 16:49:00,
2013-03-08 08:54:00,53.6,31.6,29.83,SSW,201,5.4,5.4,43,0.00,,CLR,0.67,VWS V14.01,2013-03-08 16:54:00,
2013-03-08 08:59:00,53.9,31.4,29.83,SSE,166,2.7,4.0,42,0.00,,CLR,0.67,VWS V14.01,2013-03-08 16:59:00,
2013-03-08 09:04:00,54.1,30.4,29.85,SSE,164,0.0,0.0,40,0.00,,CLR,0.67,VWS V14.01,2013-03-08 17:04:00,
2013-03-08 09:09:00,53.9,29.6,29.85,WSW,258,0.0,0.0,39,0.00,,CLR,0.67,VWS V14.01,2013-03-08 17:09:00,
2013-03-08 09:14:00,53.6,29.9,29.85,NW,325,0.0,0.0,40,0.00,,CLR,0.67,VWS V14.01,2013-03-08 17:14:00,
2013-03-08 09:20:00,53.6,29.9,29.85,NNW,332,0.0,0.0,40,0.00,,CLR,0.67,VWS V14.01,2013-03-08 17:20:00,
2013-03-08 09:25:00,53.6,30.5,29.85,WNW,287,0.0,0.0,41,0.00,,CLR,0.67,VWS V14.01,2013-03-08 17:25:00,
2013-03-08 09:30:00,53.6,29.2,29.85,West,266,0.0,0.0,39,0.00,,CLR,0.67,VWS V14.01,2013-03-08 17:30:00,
2013-03-08 09:35:00,54.1,30.4,29.85,West,265,0.0,0.0,40,0.00,,BKN034,0.67,VWS V14.01,2013-03-08 17:35:00,
2013-03-08 09:41:00,54.3,29.2,29.85,South,177,0.0,0.0,38,0.00,,BKN034,0.67,VWS V14.01,2013-03-08 17:41:00,
2013-03-08 09:46:00,54.3,29.2,29.85,South,182,0.0,0.0,38,0.00,,BKN034,0.67,VWS V14.01,2013-03-08 17:46:00,
2013-03-08 09:51:00,55.2,28.7,29.85,North,1,2.7,3.1,36,0.00,,BKN034,0.67,VWS V14.01,2013-03-08 17:51:00,
2013-03-08 09:56:00,56.3,29.7,29.85,WNW,284,2.7,2.7,36,0.00,,BKN034,0.67,VWS V14.01,2013-03-08 17:56:00,
2013-03-08 10:01:00,55.6,27.7,29.85,SSW,206,3.6,4.0,34,0.00,,BKN034,0.67,VWS V14.01,2013-03-08 18:01:00,
2013-03-08 10:06:00,54.8,27.7,29.85,West,266,0.0,0.0,35,0.00,,BKN034,0.67,VWS V14.01,2013-03-08 18:06:00,
2013-03-08 10:12:00,54.1,27.1,29.85,NW,305,8.1,10.1,35,0.00,,BKN034,0.67,VWS V14.01,2013-03-08 18:12:00,
2013-03-08 10:17:00,53.4,27.1,29.85,West,260,3.6,6.3,36,0.00,,BKN034,0.67,VWS V14.01,2013-03-08 18:17:00,
2013-03-08 10:23:00,52.9,26.7,29.85,West,280,5.8,6.7,36,0.00,,BKN034,0.67,VWS V14.01,2013-03-08 18:23:00,
2013-03-08 10:28:00,52.5,26.3,29.85,SW,225,3.6,7.6,36,0.00,,BKN034,0.67,VWS V14.01,2013-03-08 18:28:00,
2013-03-08 10:34:00,52.1,26.7,29.85,SW,229,4.0,5.8,37,0.00,,BKN034,0.67,VWS V14.01,2013-03-08 18:34:00,
2013-03-08 10:39:00,52.1,29.2,29.85,WSW,237,3.6,4.0,41,0.00,,BKN045,0.67,VWS V14.01,2013-03-08 18:39:00,
2013-03-08 10:44:00,52.1,29.2,29.85,West,268,0.0,3.6,41,0.00,,BKN045,0.67,VWS V14.01,2013-03-08 18:44:00,
2013-03-08 10:50:00,52.5,28.9,29.85,WNW,282,3.1,3.6,40,0.00,,BKN045,0.67,VWS V14.01,2013-03-08 18:50:00,
2013-03-08 10:55:00,53.0,28.1,29.85,West,259,3.6,5.4,38,0.00,,BKN045,0.67,VWS V14.01,2013-03-08 18:55:00,
2013-03-08 11:00:00,52.5,28.3,29.85,SSW,212,5.8,8.3,39,0.00,,BKN045,0.67,VWS V14.01,2013-03-08 19:00:00,
2013-03-08 11:05:00,51.2,27.8,29.85,SW,227,8.1,8.1,40,0.00,,BKN045,0.67,VWS V14.01,2013-03-08 19:05:00,
2013-03-08 11:11:00,51.4,29.7,29.85,SW,214,6.3,8.1,43,0.00,,BKN045,0.67,VWS V14.01,2013-03-08 19:11:00,
2013-03-08 11:16:00,50.5,29.4,29.85,SSW,204,8.3,10.5,44,0.00,,BKN045,0.67,VWS V14.01,2013-03-08 19:16:00,
2013-03-08 11:22:00,50.0,29.5,29.85,SSW,196,7.6,7.6,45,0.00,,BKN045,0.67,VWS V14.01,2013-03-08 19:22:00,
2013-03-08 11:27:00,49.4,30.6,29.85,South,181,6.3,8.1,48,0.00,,BKN045,0.67,VWS V14.01,2013-03-08 19:27:00,
2013-03-08 11:33:00,48.9,30.1,29.88,SSW,209,8.1,8.1,48,0.00,,BKN045,0.67,VWS V14.01,2013-03-08 19:33:00,
2013-03-08 11:39:00,48.5,30.8,29.88,SSW,200,4.0,4.0,50,0.00,,RA,0.67,VWS V14.01,2013-03-08 19:39:00,
2013-03-08 11:44:00,48.4,31.6,29.88,SSW,194,2.7,4.9,52,0.04,,RA,0.71,VWS V14.01,2013-03-08 19:44:00,
2013-03-08 11:50:00,48.7,33.3,29.88,SSW,192,2.7,5.4,55,0.04,,RA,0.71,VWS V14.01,2013-03-08 19:50:00,
2013-03-08 11:55:00,49.4,34.9,29.88,South,179,4.0,4.0,57,0.04,,RA,0.71,VWS V14.01,2013-03-08 19:55:00,
2013-03-08 12:01:00,50.3,35.3,29.88,South,191,3.6,5.4,56,0.04,,RA,0.71,VWS V14.01,2013-03-08 20:01:00,
2013-03-08 12:06:00,50.2,33.2,29.88,SSW,210,4.0,5.8,52,0.04,,RA,0.71,VWS V14.01,2013-03-08 20:06:00,
2013-03-08 12:12:00,50.3,31.9,29.88,SSW,197,7.6,8.3,49,0.04,,RA,0.71,VWS V14.01,2013-03-08 20:12:00,
2013-03-08 12:18:00,50.5,30.5,29.88,SW,221,4.9,6.3,46,0.04,,RA,0.71,VWS V14.01,2013-03-08 20:18:00,
2013-03-08 12:23:00,50.2,30.2,29.88,SSW,202,7.6,8.3,46,0.04,,RA,0.71,VWS V14.01,2013-03-08 20:23:00,
2013-03-08 12:29:00,50.0,30.6,29.88,SSW,206,5.8,8.7,47,0.04,,RA,0.71,VWS V14.01,2013-03-08 20:29:00,
2013-03-08 12:34:00,50.5,32.1,29.88,SW,231,7.6,8.1,49,0.04,,RA,0.71,VWS V14.01,2013-03-08 20:34:00,
2013-03-08 12:40:00,52.1,32.5,29.88,WSW,249,4.0,5.4,47,0.04,,RA,0.71,VWS V14.01,2013-03-08 20:40:00,
2013-03-08 12:45:00,53.6,33.3,29.88,South,185,7.2,7.2,46,0.00,,RA,0.71,VWS V14.01,2013-03-08 20:45:00,
2013-03-08 12:50:00,54.3,29.2,29.85,SW,228,4.0,6.7,38,0.00,,RA,0.71,VWS V14.01,2013-03-08 20:50:00,
2013-03-08 12:56:00,55.2,28.0,29.85,SSW,196,3.6,8.1,35,0.00,,-RA,0.71,VWS V14.01,2013-03-08 20:56:00,
2013-03-08 13:01:00,54.8,26.3,29.85,West,275,6.3,7.6,33,0.00,,-RA,0.71,VWS V14.01,2013-03-08 21:01:00,
2013-03-08 13:06:00,55.9,27.2,29.85,SW,226,5.4,8.3,33,0.00,,-RA,0.71,VWS V14.01,2013-03-08 21:06:00,
2013-03-08 13:11:00,55.9,25.7,29.85,SSW,193,5.4,5.8,31,0.00,,-RA,0.71,VWS V14.01,2013-03-08 21:11:00,
2013-03-08 13:16:00,55.9,26.5,29.85,SW,232,5.8,8.1,32,0.00,,-RA,0.71,VWS V14.01,2013-03-08 21:16:00,
2013-03-08 13:22:00,55.9,26.5,29.85,SW,235,10.5,10.5,32,0.00,,-RA,0.71,VWS V14.01,2013-03-08 21:22:00,
2013-03-08 13:28:00,56.5,29.2,29.85,South,183,9.2,9.2,35,0.00,,-RA,0.71,VWS V14.01,2013-03-08 21:28:00,
2013-03-08 13:33:00,56.3,29.0,29.85,South,178,8.3,10.5,35,0.00,,-RA,0.71,VWS V14.01,2013-03-08 21:33:00,
2013-03-08 13:39:00,57.2,29.1,29.85,SSW,212,8.7,10.1,34,0.00,,FEW065,0.71,VWS V14.01,2013-03-08 21:39:00,
2013-03-08 13:44:00,56.5,29.2,29.85,West,272,8.7,8.7,35,0.00,,FEW065,0.71,VWS V14.01,2013-03-08 21:44:00,
2013-03-08 13:50:00,55.7,29.2,29.85,SW,220,4.9,10.5,36,0.00,,FEW065,0.71,VWS V14.01,2013-03-08 21:50:00,
2013-03-08 13:56:00,55.2,29.4,29.85,SW,222,4.0,8.1,37,0.00,,FEW065,0.71,VWS V14.01,2013-03-08 21:56:00,
2013-03-08 14:01:00,55.4,28.2,29.85,West,260,11.9,13.2,35,0.00,,FEW065,0.71,VWS V14.01,2013-03-08 22:01:00,
2013-03-08 14:07:00,56.5,26.2,29.85,WSW,237,8.1,11.9,31,0.00,,FEW065,0.71,VWS V14.01,2013-03-08 22:07:00,
2013-03-08 14:12:00,55.0,24.2,29.85,West,267,8.7,10.5,30,0.00,,FEW065,0.71,VWS V14.01,2013-03-08 22:12:00,
2013-03-08 14:17:00,55.2,24.3,29.85,West,274,8.7,11.9,30,0.00,,FEW065,0.71,VWS V14.01,2013-03-08 22:17:00,
2013-03-08 14:23:00,55.2,26.6,29.85,WSW,251,9.6,12.8,33,0.00,,FEW065,0.71,VWS V14.01,2013-03-08 22:23:00,
2013-03-08 14:28:00,55.6,23.8,29.85,NW,319,8.3,10.5,29,0.00,,FEW065,0.71,VWS V14.01,2013-03-08 22:28:00,
2013-03-08 14:34:00,57.0,24.2,29.85,West,263,6.3,8.3,28,0.00,,FEW065,0.71,VWS V14.01,2013-03-08 22:34:00,
2013-03-08 14:39:00,57.4,23.7,29.85,SW,234,5.4,10.1,27,0.00,,OVC055,0.71,VWS V14.01,2013-03-08 22:39:00,
2013-03-08 14:45:00,57.5,22.9,29.85,SW,230,8.7,11.0,26,0.00,,OVC055,0.71,VWS V14.01,2013-03-08 22:45:00,
2013-03-08 14:50:00,56.6,22.2,29.85,SW,235,6.3,8.7,26,0.00,,OVC055,0.71,VWS V14.01,2013-03-08 22:50:00,
2013-03-08 14:56:00,57.5,24.7,29.85,WSW,249,5.8,8.7,28,0.00,,OVC055,0.71,VWS V14.01,2013-03-08 22:56:00,
2013-03-08 15:01:00,56.6,23.1,29.85,WSW,253,6.3,8.3,27,0.00,,OVC055,0.71,VWS V14.01,2013-03-08 23:01:00,
2013-03-08 15:07:00,56.3,22.8,29.85,WNW,283,7.6,7.6,27,0.00,,OVC055,0.71,VWS V14.01,2013-03-08 23:07:00,
2013-03-08 15:13:00,56.5,23.8,29.85,WNW,303,7.6,11.4,28,0.00,,OVC055,0.71,VWS V14.01,2013-03-08 23:13:00,
2013-03-08 15:19:00,55.9,25.0,29.85,WSW,252,8.7,8.7,30,0.00,,OVC055,0.71,VWS V14.01,2013-03-08 23:19:00,
2013-03-08 15:24:00,55.7,24.0,29.85,SW,220,11.0,11.0,29,0.00,,OVC055,0.71,VWS V14.01,2013-03-08 23:24:00,
2013-03-08 15:29:00,55.9,24.1,29.85,SW,233,7.6,10.5,29,0.00,,OVC055,0.71,VWS V14.01,2013-03-08 23:29:00,
2013-03-08 15:35:00,55.9,24.1,29.85,West,272,8.7,11.0,29,0.00,,OVC055,0.71,VWS V14.01,2013-03-08 23:35:00,
2013-03-08 15:40:00,56.5,26.2,29.85,SW,232,9.6,10.1,31,0.00,,SCT055,0.71,VWS V14.01,2013-03-08 23:40:00,
2013-03-08 15:45:00,56.6,25.6,29.85,West,270,6.3,10.1,30,0.00,,SCT055,0.71,VWS V14.01,2013-03-08 23:45:00,
2013-03-08 15:51:00,56.5,24.6,29.85,SSW,212,7.6,7.6,29,0.00,,SCT055,0.71,VWS V14.01,2013-03-08 23:51:00,
2013-03-08 15:56:00,55.0,23.4,29.85,SW,218,8.1,12.8,29,0.00,,SCT055,0.71,VWS V14.01,2013-03-08 23:56:00,
2013-03-08 16:02:00,55.4,25.3,29.85,WSW,254,4.5,8.3,31,0.00,,SCT055,0.71,VWS V14.01,2013-03-09 00:02:00,
2013-03-08 16:08:00,55.6,24.6,29.85,SW,229,8.3,8.3,30,0.00,,SCT055,0.71,VWS V14.01,2013-03-09 00:08:00,
2013-03-08 16:13:00,55.4,24.5,29.85,WSW,244,8.1,8.1,30,0.00,,BKN050,0.71,VWS V14.01,2013-03-09 00:13:00,
2013-03-08 16:19:00,55.4,24.5,29.85,WSW,238,8.7,8.7,30,0.00,,BKN050,0.71,VWS V14.01,2013-03-09 00:19:00,
2013-03-08 16:24:00,55.2,24.3,29.85,West,275,6.3,6.3,30,0.00,,BKN050,0.71,VWS V14.01,2013-03-09 00:24:00,
2013-03-08 16:30:00,55.0,24.2,29.85,WSW,248,8.7,8.7,30,0.00,,BKN050,0.71,VWS V14.01,2013-03-09 00:30:00,
2013-03-08 16:36:00,54.8,25.6,29.85,WSW,254,4.0,8.7,32,0.00,,BKN050,0.71,VWS V14.01,2013-03-09 00:36:00,
2013-03-08 16:41:00,54.8,25.6,29.85,West,260,5.4,8.7,32,0.00,,BKN050,0.71,VWS V14.01,2013-03-09 00:41:00,
2013-03-08 16:47:00,54.8,25.6,29.85,WSW,246,3.6,8.3,32,0.00,,BKN050,0.71,VWS V14.01,2013-03-09 00:47:00,
2013-03-08 16:52:00,54.7,26.9,29.85,SW,233,5.4,8.1,34,0.00,,BKN050,0.71,VWS V14.01,2013-03-09 00:52:00,
2013-03-08 16:58:00,54.7,26.9,29.85,West,261,2.7,5.8,34,0.00,,BKN050,0.71,VWS V14.01,2013-03-09 00:58:00,
2013-03-08 17:04:00,54.3,26.5,29.88,WSW,253,6.3,10.1,34,0.00,,BKN050,0.71,VWS V14.01,2013-03-09 01:04:00,
2013-03-08 17:09:00,54.3,27.2,29.88,SSW,212,8.1,8.1,35,0.00,,BKN050,0.71,VWS V14.01,2013-03-09 01:09:00,
2013-03-08 17:15:00,54.1,26.4,29.88,SSW,207,5.8,8.3,34,0.00,,BKN050,0.71,VWS V14.01,2013-03-09 01:15:00,
2013-03-08 17:20:00,54.1,27.1,29.88,WSW,247,8.7,8.7,35,0.00,,BKN050,0.71,VWS V14.01,2013-03-09 01:20:00,
2013-03-08 17:26:00,54.1,27.8,29.88,WSW,249,6.3,6.3,36,0.00,,BKN050,0.71,VWS V14.01,2013-03-09 01:26:00,
2013-03-08 17:31:00,53.9,27.6,29.88,WSW,243,8.1,8.1,36,0.00,,BKN050,0.71,VWS V14.01,2013-03-09 01:31:00,
2013-03-08 17:37:00,53.9,26.9,29.88,West,279,5.8,8.1,35,0.00,,OVC080,0.71,VWS V14.01,2013-03-09 01:37:00,
2013-03-08 17:43:00,53.9,26.9,29.88,SSW,203,5.8,5.8,35,0.00,,OVC080,0.71,VWS V14.01,2013-03-09 01:43:00,
2013-03-08 17:48:00,53.9,27.6,29.88,SSW,209,2.7,4.0,36,0.00,,OVC080,0.71,VWS V14.01,2013-03-09 01:48:00,
2013-03-08 17:54:00,53.9,27.6,29.88,SW,225,4.0,5.4,36,0.00,,OVC080,0.71,VWS V14.01,2013-03-09 01:54:00,
2013-03-08 17:59:00,53.9,27.6,29.88,WSW,239,4.0,5.8,36,0.00,,OVC080,0.71,VWS V14.01,2013-03-09 01:59:00,
2013-03-08 18:05:00,53.8,27.5,29.91,SSW,205,4.0,6.3,36,0.00,,OVC080,0.71,VWS V14.01,2013-03-09 02:05:00,
2013-03-08 18:11:00,53.8,27.5,29.91,SSW,198,4.9,5.4,36,0.00,,OVC080,0.71,VWS V14.01,2013-03-09 02:11:00,
2013-03-08 18:16:00,53.8,28.1,29.91,SW,222,2.7,4.9,37,0.00,,OVC080,0.71,VWS V14.01,2013-03-09 02:16:00,
2013-03-08 18:22:00,53.6,28.6,29.91,SSW,196,5.4,7.6,38,0.00,,OVC080,0.71,VWS V14.01,2013-03-09 02:22:00,
2013-03-08 18:28:00,53.8,29.4,29.91,West,261,4.9,8.7,39,0.00,,OVC080,0.71,VWS V14.01,2013-03-09 02:28:00,
2013-03-08 18:33:00,53.8,30.6,29.91,SW,225,5.8,8.1,41,0.00,,OVC080,0.71,VWS V14.01,2013-03-09 02:33:00,
2013-03-08 18:39:00,53.6,30.5,29.91,WSW,247,6.3,8.1,41,0.00,,OVC080,0.71,VWS V14.01,2013-03-09 02:39:00,
2013-03-08 18:44:00,53.6,30.5,29.91,SSW,211,3.6,4.9,41,0.00,,OVC080,0.71,VWS V14.01,2013-03-09 02:44:00,
2013-03-08 18:50:00,53.6,30.5,29.94,WSW,250,5.8,5.8,41,0.00,,OVC080,0.71,VWS V14.01,2013-03-09 02:50:00,
2013-03-08 18:55:00,53.8,30.6,29.94,SW,219,4.5,5.4,41,0.00,,OVC080,0.71,VWS V14.01,2013-03-09 02:55:00,
2013-03-08 19:01:00,53.8,31.2,29.94,WSW,239,4.0,4.0,42,0.00,,OVC080,0.71,VWS V14.01,2013-03-09 03:01:00,
2013-03-08 19:06:00,53.8,32.4,29.94,WSW,252,6.3,6.3,44,0.00,,OVC080,0.71,VWS V14.01,2013-03-09 03:06:00,
2013-03-08 19:11:00,53.6,32.8,29.94,WSW,258,3.1,4.9,45,0.00,,OVC080,0.71,VWS V14.01,2013-03-09 03:11:00,
2013-03-08 19:17:00,53.6,32.8,29.94,SSW,213,4.9,5.4,45,0.00,,OVC080,0.71,VWS V14.01,2013-03-09 03:17:00,
2013-03-08 19:22:00,53.4,33.2,29.94,SSW,201,3.1,4.0,46,0.00,,OVC080,0.71,VWS V14.01,2013-03-09 03:22:00,
2013-03-08 19:28:00,53.4,33.2,29.94,SW,229,2.7,2.7,46,0.00,,OVC080,0.71,VWS V14.01,2013-03-09 03:28:00,
2013-03-08 19:33:00,53.4,33.2,29.94,SSW,202,3.6,6.3,46,0.00,,OVC080,0.71,VWS V14.01,2013-03-09 03:33:00,
2013-03-08 19:38:00,53.6,33.3,29.94,SSW,209,5.4,6.3,46,0.00,,OVC055,0.71,VWS V14.01,2013-03-09 03:38:00,
2013-03-08 19:43:00,53.6,34.4,29.94,WSW,245,5.4,6.3,48,0.00,,OVC055,0.71,VWS V14.01,2013-03-09 03:43:00,
2013-03-08 19:49:00,53.6,35.9,29.94,SW,229,3.6,3.6,51,0.00,,OVC055,0.71,VWS V14.01,2013-03-09 03:49:00,
2013-03-08 19:54:00,53.2,36.5,29.94,SSW,213,2.7,3.1,53,0.00,,OVC055,0.71,VWS V14.01,2013-03-09 03:54:00,
2013-03-08 19:59:00,53.0,36.8,29.94,SSW,204,4.0,4.0,54,0.00,,OVC055,0.71,VWS V14.01,2013-03-09 03:59:00,
2013-03-08 20:05:00,53.0,38.7,29.94,SW,221,4.9,5.8,58,0.00,,OVC055,0.71,VWS V14.01,2013-03-09 04:05:00,
2013-03-08 20:10:00,53.0,38.7,29.94,SW,220,3.6,4.0,58,0.00,,OVC055,0.71,VWS V14.01,2013-03-09 04:10:00,
2013-03-08 20:15:00,53.2,39.3,29.94,WSW,251,4.0,4.0,59,0.00,,OVC055,0.71,VWS V14.01,2013-03-09 04:15:00,
2013-03-08 20:21:00,53.4,39.0,29.97,NW,316,6.3,7.6,58,0.00,,OVC055,0.71,VWS V14.01,2013-03-09 04:21:00,
2013-03-08 20:26:00,53.6,37.4,29.97,WNW,295,7.6,8.1,54,0.00,,OVC055,0.71,VWS V14.01,2013-03-09 04:26:00,
2013-03-08 20:31:00,53.8,36.6,29.97,WNW,282,7.6,8.7,52,0.00,,OVC055,0.71,VWS V14.01,2013-03-09 04:31:00,
2013-03-08 20:36:00,53.8,35.6,29.97,WNW,285,10.5,11.0,50,0.00,,OVC055,0.71,VWS V14.01,2013-03-09 04:36:00,
2013-03-08 20:42:00,53.8,35.1,29.97,WSW,238,11.0,11.0,49,0.00,,OVC055,0.71,VWS V14.01,2013-03-09 04:42:00,
2013-03-08 20:47:00,53.6,35.4,29.97,West,259,5.4,5.4,50,0.00,,OVC055,0.71,VWS V14.01,2013-03-09 04:47:00,
2013-03-08 20:52:00,53.6,35.4,29.97,West,270,5.4,8.3,50,0.00,,OVC055,0.71,VWS V14.01,2013-03-09 04:52:00,
2013-03-08 20:57:00,53.8,35.6,29.97,West,279,8.3,8.7,50,0.00,,OVC055,0.71,VWS V14.01,2013-03-09 04:57:00,
2013-03-08 21:00:00,53.8,36.1,29.97,WSW,248,3.1,7.2,51,0.00,,OVC055,0.71,VWS V14.01,2013-03-09 05:00:00,
2013-03-08 21:01:00,53.6,35.9,29.97,WSW,253,5.8,8.3,51,0.00,,OVC055,0.71,VWS V14.01,2013-03-09 05:01:00,
2013-03-08 21:03:00,53.6,35.9,29.97,WSW,253,5.4,11.0,51,0.00,,OVC055,0.71,VWS V14.01,2013-03-09 05:03:00,
2013-03-08 21:08:00,53.6,35.9,29.97,SW,236,10.1,10.1,51,0.00,,OVC055,0.71,VWS V14.01,2013-03-09 05:08:00,
2013-03-08 21:09:00,53.6,35.9,29.97,West,271,11.0,11.0,51,0.00,,OVC055,0.71,VWS V14.01,2013-03-09 05:09:00,
2013-03-08 21:14:00,53.4,35.7,29.97,West,264,8.1,8.1,51,0.00,,OVC055,0.71,VWS V14.01,2013-03-09 05:14:00,
2013-03-08 21:20:00,53.4,35.7,29.97,SW,233,5.8,6.3,51,0.00,,OVC055,0.71,VWS V14.01,2013-03-09 05:20:00,
2013-03-08 21:25:00,53.4,35.7,29.97,WSW,256,6.3,8.3,51,0.00,,OVC055,0.71,VWS V14.01,2013-03-09 05:25:00,
2013-03-08 21:30:00,53.2,35.6,29.97,South,184,6.3,8.3,51,0.00,,OVC055,0.71,VWS V14.01,2013-03-09 05:30:00,
2013-03-08 21:35:00,53.2,35.1,29.97,WSW,242,8.1,8.1,50,0.00,,OVC095,0.71,VWS V14.01,2013-03-09 05:35:00,
2013-03-08 21:41:00,53.4,35.2,29.97,West,271,4.0,8.3,50,0.00,,OVC095,0.71,VWS V14.01,2013-03-09 05:41:00,
2013-03-08 21:46:00,53.2,35.6,29.97,WSW,247,5.8,8.3,51,0.00,,OVC095,0.71,VWS V14.01,2013-03-09 05:46:00,
2013-03-08 21:52:00,53.2,36.1,29.97,SW,234,8.1,11.0,52,0.00,,OVC095,0.71,VWS V14.01,2013-03-09 05:52:00,
2013-03-08 21:57:00,53.2,36.1,29.97,SW,225,6.7,6.7,52,0.00,,OVC095,0.71,VWS V14.01,2013-03-09 05:57:00,
2013-03-08 22:03:00,53.2,36.1,29.97,NNW,334,5.4,8.1,52,0.00,,OVC095,0.71,VWS V14.01,2013-03-09 06:03:00,
2013-03-08 22:09:00,53.2,35.6,29.97,WSW,245,4.9,8.1,51,0.00,,OVC095,0.71,VWS V14.01,2013-03-09 06:09:00,
2013-03-08 22:14:00,53.0,35.4,29.97,West,267,8.1,11.0,51,0.00,,OVC095,0.71,VWS V14.01,2013-03-09 06:14:00,
2013-03-08 22:20:00,52.9,35.2,29.97,SW,236,3.1,7.6,51,0.00,,OVC095,0.71,VWS V14.01,2013-03-09 06:20:00,
2013-03-08 22:26:00,52.7,35.6,29.97,WSW,237,3.1,8.1,52,0.00,,OVC095,0.71,VWS V14.01,2013-03-09 06:26:00,
2013-03-08 22:32:00,52.7,35.6,29.97,WSW,242,4.0,5.8,52,0.00,,OVC095,0.71,VWS V14.01,2013-03-09 06:32:00,
2013-03-08 22:37:00,52.5,35.4,29.97,WSW,245,3.1,5.8,52,0.00,,OVC095,0.71,VWS V14.01,2013-03-09 06:37:00,
2013-03-08 22:43:00,52.3,35.7,29.97,WSW,254,3.1,5.4,53,0.00,,OVC095,0.71,VWS V14.01,2013-03-09 06:43:00,
2013-03-08 22:49:00,52.3,35.7,29.97,SSW,211,4.0,4.9,53,0.00,,OVC095,0.71,VWS V14.01,2013-03-09 06:49:00,
2013-03-08 22:55:00,52.1,36.0,29.97,SW,227,3.1,4.0,54,0.00,,OVC095,0.71,VWS V14.01,2013-03-09 06:55:00,
2013-03-08 23:00:00,52.0,36.3,29.97,SW,223,3.1,3.6,55,0.00,,OVC095,0.71,VWS V14.01,2013-03-09 07:00:00,
2013-03-08 23:06:00,52.0,36.3,29.97,WSW,245,6.3,6.3,55,0.00,,SCT023,0.71,VWS V14.01,2013-03-09 07:06:00,
2013-03-08 23:12:00,52.0,35.8,29.97,WSW,242,4.0,4.5,54,0.00,,SCT023,0.71,VWS V14.01,2013-03-09 07:12:00,
2013-03-08 23:17:00,51.8,36.2,29.97,SW,222,3.1,5.8,55,0.00,,SCT023,0.71,VWS V14.01,2013-03-09 07:17:00,
2013-03-08 23:23:00,51.8,36.2,29.97,SW,220,3.6,4.0,55,0.00,,SCT023,0.71,VWS V14.01,2013-03-09 07:23:00,
2013-03-08 23:28:00,51.6,36.0,29.97,SW,220,3.1,3.1,55,0.00,,SCT023,0.71,VWS V14.01,2013-03-09 07:28:00,
2013-03-08 23:34:00,51.4,35.8,29.97,SSW,200,2.7,3.6,55,0.00,,SCT023,0.71,VWS V14.01,2013-03-09 07:34:00,
2013-03-08 23:39:00,51.2,35.6,29.97,SSW,200,2.7,3.1,55,0.00,,SCT095,0.71,VWS V14.01,2013-03-09 07:39:00,
2013-03-08 23:44:00,51.2,35.6,29.97,SSW,200,3.1,3.1,55,0.00,,SCT095,0.71,VWS V14.01,2013-03-09 07:44:00,
2013-03-08 23:50:00,51.2,36.1,29.97,SSW,200,2.7,3.6,56,0.00,,SCT095,0.71,VWS V14.01,2013-03-09 07:50:00,
2013-03-08 23:55:00,51.1,35.9,29.97,SSW,200,3.1,3.1,56,0.00,,SCT095,0.71,VWS V14.01,2013-03-09 07:55:00,